Monterey, Australia

1:49 AM AEDT on February 26, 2018 (GMT +1100)
Monterey

Weather History for 94767 - January, 2014

Change the Weather History Date:

Tuesday, January 21, 2014

  Actual Average Record
Temperature  
Mean Temperature 72 °F -  
Max Temperature 77 °F 80 °F - ()
Min Temperature 67 °F 66 °F - ()
Cooling Degree Days 7    
Growing Degree Days 22 (Base 50)    
Moisture  
Dew Point 65 °F    
Average Humidity 79    
Maximum Humidity 100    
Minimum Humidity 57    
Precipitation  
Precipitation 0.01 in 0.15 in - ()
Sea Level Pressure  
Sea Level Pressure 29.80 in    
Wind  
Wind Speed 9 mph ()    
Max Wind Speed 13 mph    
Max Gust Speed -    
Visibility 6.6 miles    
Events Rain    
T = Trace of Precipitation, MM = Missing Value Source: Averaged Metar Reports

Daily Weather History Graph

Daily Weather History Graph

Search for Another Location

Airport or City:

Trip Planner

Search our weather history database for the weather conditions in past years. The results will help you decide how hot, cold, wet, or windy it might be!

Date:

Astronomy

Jan. 21, 2014 Rise Set
Actual Time 6:05 AM AEDT 8:07 PM AEDT
Civil Twilight 5:37 AM AEDT 8:35 PM AEDT
Nautical Twilight 5:03 AM AEDT 9:09 PM AEDT
Astronomical Twilight 4:26 AM AEDT 9:45 PM AEDT
Moon 10:39 PM AEDT (1/21) 10:23 AM AEDT (1/21)
Length of Visible Light 14h 58m
Length of Day
14h 02m
Waning Gibbous, 80% of the Moon is Illuminated
Jan 21
Waning Gibbous
Jan 24
Last Quarter
Jan 31
New
Feb 7
First Quarter
Feb 15
Full

Hourly Weather History & Observations

Time (AEDT) Temp. Dew Point Humidity Pressure Visibility Wind Dir Wind Speed Gust Speed Precip Events Conditions
12:00 AM 67 °F 66 °F 96% 29.86 in 4 mi ESE 10.4 mph - - Rain Light Rain
12:00 AM 68.0 °F 66.2 °F 94% 29.83 in 3.7 mi ESE 10.4 mph - N/A Rain Light Rain
12:30 AM 68.0 °F 66.2 °F 94% 29.83 in 3.7 mi SE 6.9 mph - N/A   Light Drizzle
1:00 AM 68 °F 66 °F 91% 29.84 in - SSE 8.1 mph - -  
1:00 AM 68.0 °F 66.2 °F 94% 29.83 in 3.7 mi SSE 8.1 mph - N/A   Light Drizzle
1:30 AM 68.0 °F 66.2 °F 94% 29.83 in 3.1 mi South 9.2 mph - N/A   Light Drizzle
2:00 AM 68 °F 67 °F 94% 29.82 in - South 8.1 mph - -  
2:00 AM 68.0 °F 66.2 °F 94% 29.80 in 4.3 mi South 8.1 mph - N/A   Light Drizzle
2:30 AM 68.0 °F 68.0 °F 100% 29.80 in 5.0 mi South 10.4 mph - N/A Rain Light Rain
3:00 AM 68 °F 67 °F 97% 29.81 in 4 mi South 12.7 mph - - Rain Light Rain
3:00 AM 68.0 °F 68.0 °F 100% 29.80 in 3.7 mi South 12.7 mph - N/A Rain Light Rain
3:30 AM 68.0 °F 66.2 °F 94% 29.80 in 5.6 mi South 12.7 mph - N/A Rain Light Rain
4:00 AM 68 °F 66 °F 92% 29.80 in - South 10.4 mph - -  
4:00 AM 68.0 °F 66.2 °F 94% 29.77 in 5.6 mi South 10.4 mph - N/A   Mostly Cloudy
4:30 AM 68.0 °F 66.2 °F 94% 29.77 in 5.6 mi South 8.1 mph - N/A   Mostly Cloudy
5:00 AM 69 °F 66 °F 87% 29.79 in - ESE 9.2 mph - -  
5:00 AM 68.0 °F 66.2 °F 94% 29.77 in 6.2 mi ESE 9.2 mph - N/A   Mostly Cloudy
5:30 AM 69.8 °F 64.4 °F 83% 29.80 in 6.2 mi ESE 9.2 mph - N/A   Mostly Cloudy
6:00 AM 70 °F 65 °F 81% 29.80 in 11 mi ESE 8.1 mph - -   Mostly Cloudy
6:00 AM 69.8 °F 66.2 °F 88% 29.80 in 6.2 mi ESE 8.1 mph - N/A   Mostly Cloudy
6:30 AM 69.8 °F 66.2 °F 88% 29.80 in 6.2 mi ESE 9.2 mph - N/A   Mostly Cloudy
7:00 AM 70 °F 64 °F 77% 29.81 in - East 12.7 mph - -  
7:00 AM 69.8 °F 64.4 °F 83% 29.80 in 6.2 mi East 12.7 mph - N/A   Mostly Cloudy
7:30 AM 71.6 °F 64.4 °F 78% 29.80 in 6.2 mi East 11.5 mph - N/A   Mostly Cloudy
8:00 AM 71 °F 64 °F 73% 29.83 in - East 12.7 mph - -  
8:00 AM 71.6 °F 64.4 °F 78% 29.83 in 6.2 mi East 12.7 mph - N/A   Light Drizzle
8:30 AM 69.8 °F 64.4 °F 83% 29.83 in 6.2 mi East 12.7 mph - N/A   Light Drizzle
9:00 AM 71 °F 63 °F 70% 29.84 in 9 mi East 12.7 mph - - Rain Light Drizzle
9:00 AM 69.8 °F 62.6 °F 78% 29.83 in 6.2 mi East 12.7 mph - N/A   Light Drizzle
9:30 AM 71.6 °F 64.4 °F 78% 29.83 in 6.2 mi East 11.5 mph - N/A   Light Drizzle
10:00 AM 70 °F 65 °F 81% 29.83 in - East 11.5 mph - -  
10:00 AM 69.8 °F 66.2 °F 88% 29.83 in 6.2 mi East 11.5 mph - N/A   Light Drizzle
11:00 AM 72 °F 64 °F 69% 29.82 in - East 12.7 mph - -  
11:00 AM 71.6 °F 64.4 °F 78% 29.80 in 6.2 mi East 12.7 mph - N/A   Mostly Cloudy
11:30 AM 73.4 °F 62.6 °F 69% 29.80 in 6.2 mi East 12.7 mph - N/A   Mostly Cloudy
12:00 PM 74 °F 64 °F 62% 29.81 in 12 mi East 11.5 mph - -   Partly Cloudy
12:00 PM 73.4 °F 64.4 °F 73% 29.80 in 6.2 mi East 11.5 mph - N/A   Mostly Cloudy
12:30 PM 73.4 °F 64.4 °F 73% 29.80 in 6.2 mi East 10.4 mph - N/A   Mostly Cloudy
1:00 PM 75 °F 64 °F 60% 29.80 in - ESE 8.1 mph - -  
1:00 PM 75.2 °F 64.4 °F 69% 29.80 in 6.2 mi ESE 8.1 mph - N/A   Mostly Cloudy
1:30 PM 73.4 °F 64.4 °F 73% 29.77 in 6.2 mi East 9.2 mph - N/A   Mostly Cloudy
2:00 PM 74 °F 64 °F 62% 29.78 in - East 8.1 mph - -  
2:00 PM 73.4 °F 64.4 °F 73% 29.77 in 6.2 mi East 8.1 mph - N/A   Mostly Cloudy
2:30 PM 75.2 °F 64.4 °F 69% 29.77 in 6.2 mi East 10.4 mph - N/A   Mostly Cloudy
3:00 PM 76 °F 64 °F 57% 29.77 in 16 mi East 10.4 mph - -   Partly Cloudy
3:00 PM 77.0 °F 64.4 °F 65% 29.77 in 6.2 mi East 10.4 mph - N/A   Mostly Cloudy
3:30 PM 75.2 °F 64.4 °F 69% 29.74 in 6.2 mi East 11.5 mph - N/A   Mostly Cloudy
4:00 PM 75 °F 64 °F 60% 29.76 in - East 10.4 mph - -  
4:00 PM 75.2 °F 64.4 °F 69% 29.74 in 6.2 mi East 10.4 mph - N/A   Mostly Cloudy
4:30 PM 75.2 °F 64.4 °F 69% 29.74 in 6.2 mi East 11.5 mph - N/A   Mostly Cloudy
5:00 PM 75 °F 65 °F 62% 29.76 in - East 11.5 mph - -  
5:00 PM 75.2 °F 64.4 °F 69% 29.74 in 6.2 mi East 11.5 mph - N/A   Mostly Cloudy
5:30 PM 75.2 °F 64.4 °F 69% 29.74 in 6.2 mi East 10.4 mph - N/A   Mostly Cloudy
6:00 PM 75 °F 65 °F 63% 29.76 in 16 mi East 11.5 mph - -   Partly Cloudy
6:00 PM 75.2 °F 64.4 °F 69% 29.74 in 6.2 mi East 11.5 mph - N/A   Mostly Cloudy
6:30 PM 75.2 °F 66.2 °F 73% 29.74 in 6.2 mi East 10.4 mph - N/A   Mostly Cloudy
7:00 PM 74 °F 65 °F 66% 29.78 in - East 10.4 mph - -  
7:00 PM 73.4 °F 64.4 °F 73% 29.77 in 6.2 mi East 10.4 mph - N/A   Mostly Cloudy
7:30 PM 73.4 °F 66.2 °F 78% 29.77 in 6.2 mi East 10.4 mph - N/A   Mostly Cloudy
8:00 PM 73 °F 66 °F 73% 29.80 in - East 8.1 mph - -  
8:00 PM 73.4 °F 66.2 °F 78% 29.80 in 6.2 mi East 8.1 mph - N/A   Mostly Cloudy
8:30 PM 73.4 °F 66.2 °F 78% 29.80 in 6.2 mi SE 6.9 mph - N/A   Mostly Cloudy
9:00 PM 73 °F 67 °F 78% 29.84 in 16 mi SSE 8.1 mph - -   Partly Cloudy
9:00 PM 73.4 °F 68.0 °F 83% 29.83 in 6.2 mi SSE 8.1 mph - N/A   Mostly Cloudy
9:30 PM 73.4 °F 68.0 °F 83% 29.86 in 6.2 mi South 9.2 mph - N/A   Mostly Cloudy
10:00 PM 72 °F 68 °F 85% 29.87 in - SE 8.1 mph - -  
10:00 PM 73.4 °F 68.0 °F 83% 29.86 in 6.2 mi SE 8.1 mph - N/A   Mostly Cloudy
10:30 PM 73.4 °F 66.2 °F 78% 29.86 in 6.2 mi ESE 10.4 mph - N/A   Mostly Cloudy
11:00 PM 73 °F 66 °F 74% 29.88 in - SSE 9.2 mph - -  
11:00 PM 73.4 °F 66.2 °F 78% 29.86 in 6.2 mi SSE 9.2 mph - N/A   Mostly Cloudy
11:30 PM 71.6 °F 68.0 °F 88% 29.89 in 6.2 mi SE 8.1 mph - N/A   Mostly Cloudy